This is the latest recevied weather packets stored in our database for station/object CE7LGA-10. If no packets are shown the sender has not sent any weather packets the latest 10 day(s).
| Time | Temp. | Humidity | Pressure | Rain* | Wind** | Luminosity | Snow |
|---|---|---|---|---|---|---|---|
| 1778096230 | 21.11° C | 61% | 1003.3 hPa | - | - | - | - |
| 1778095330 | 20.56° C | 63% | 1003.1 hPa | - | - | - | - |
| 1778094430 | 20.56° C | 62% | 1002.8 hPa | - | - | - | - |
| 1778093529 | 20.56° C | 63% | 1002.6 hPa | - | - | - | - |
| 1778092631 | 21.11° C | 65% | 1002.4 hPa | - | - | - | - |
| 1778091731 | 20.56° C | 67% | 1002.3 hPa | - | - | - | - |
| 1778090831 | 20° C | 69% | 1002.1 hPa | - | - | - | - |
| 1778089931 | 20° C | 69% | 1001.8 hPa | - | - | - | - |
| 1778089031 | 18.89° C | 67% | 1001.5 hPa | - | - | - | - |
| 1778088130 | 18.89° C | 64% | 1001.3 hPa | - | - | - | - |
| 1778087231 | 17.78° C | 68% | 1001.3 hPa | - | - | - | - |
| 1778086330 | 17.78° C | 69% | 1001.3 hPa | - | - | - | - |
| 1778085430 | 16.11° C | 69% | 1001.3 hPa | - | - | - | - |
| 1778084530 | 15.56° C | 71% | 1001.1 hPa | - | - | - | - |
| 1778083630 | 15° C | 71% | 1001 hPa | - | - | - | - |
| 1778082730 | 14.44° C | 73% | 1000.8 hPa | - | - | - | - |
| 1778081830 | 13.33° C | 74% | 1000.5 hPa | - | - | - | - |
| 1778080930 | 13.33° C | 74% | 1000.4 hPa | - | - | - | - |
| 1778080030 | 13.33° C | 74% | 1000.3 hPa | - | - | - | - |
| 1778079130 | 13.33° C | 75% | 1000.1 hPa | - | - | - | - |
| 1778078230 | 13.33° C | 75% | 999.9 hPa | - | - | - | - |
| 1778077330 | 13.33° C | 76% | 999.6 hPa | - | - | - | - |
| 1778076430 | 13.33° C | 76% | 999.4 hPa | - | - | - | - |
| 1778075529 | 13.33° C | 76% | 999.2 hPa | - | - | - | - |
| 1778074629 | 13.33° C | 76% | 999.2 hPa | - | - | - | - |
* Rain since midnight (hover to see other rain measurements)
** Current wind speed in m/s (hover to see current wind gust speed)